Regional Weather Roundup
Issued by NWS

Home | Current Version | Previous Version | Text Only | Print | Product List | Glossary On
Versions: 1 2 3 4 5 6 7 8 9 10 11 12 13 14 15 16 17 18 19 20 21 22 23 24 25 26 27 28 29 30 31 32 33 34 35 36 37 38 39 40 41 42 43 44 45 46 47 48 49 50
000
ASUS45 KBOI 131310
RWRID

IDAHO REGIONAL WEATHER ROUNDUP
NATIONAL WEATHER SERVICE BOISE ID
600 AM MST WED DEC 13 2017

NOTE: "FAIR" INDICATES FEW OR NO CLOUDS BELOW 12000 FEET
WITH NO SIGNIFICANT WEATHER AND/OR OBSTRUCTIONS TO VISIBILITY

IDZ012-014-131400-
SOUTHWEST IDAHO


CITY           SKY/WX    TMP DP  RH WIND       PRES   REMARKS
BOISE          CLOUDY    22  20  92 CALM      30.46S
CALDWELL       NOT AVBL
MOUNTAIN HOME  FOG       21  21 100 CALM      30.44F VSB 1/2
$$

IDZ016-017-131400-
SOUTHCENTRAL IDAHO


CITY           SKY/WX    TMP DP  RH WIND       PRES   REMARKS
BURLEY         FOG       21  17  84 CALM      30.37F VSB 3/4
JEROME         HAZE      23  18  81 CALM      30.39S VSB 1/4
TWIN FALLS     FOG       20  18  92 CALM      30.39S VSB 1/4
$$

IDZ019>023-131400-
SOUTHEAST IDAHO


CITY           SKY/WX    TMP DP  RH WIND       PRES   REMARKS
IDAHO FALLS    CLOUDY    18  17  96 SW3       30.35S FOG
POCATELLO      FOG       19  18  95 CALM      30.37S VSB 1/4
REXBURG        CLOUDY    23  19  85 CALM      30.33S
$$

IDZ006-010-011-018-031-032-131400-
CENTRAL IDAHO MOUNTAINS


CITY           SKY/WX    TMP DP  RH WIND       PRES   REMARKS
MCCALL         CLOUDY    21  18  88 CALM      30.30F
HAILEY         PTCLDY    19  19 100 SE3       30.32F
STANLEY          N/A     15  12  88 CALM      30.34S
SALMON         CLOUDY    18  15  88 CALM      30.41F
CHALLIS        CLOUDY    20  16  84 CALM      30.33F
$$

IDZ002-004-006-007-026-131400-
NORTHERN IDAHO


CITY           SKY/WX    TMP DP  RH WIND       PRES   REMARKS
LEWISTON       CLOUDY    28  26  92 SW3       30.49F
LOWELL           N/A     30  26  85 CALM      30.48R
COEUR D`ALENE  LGT SNOW  27  24  89 CALM      30.44F FOG
MULLAN PASS    FLURRIES  25  13  60 NW6       30.27R WCI  18
$$



USA.gov is the U.S. government's official web portal to all federal, state and local government web resources and services.